Regional Weather Roundup
Issued by NWS

Home | Current Version | Previous Version | Graphics & Text | Print | Product List | Glossary Off
Versions: 1 2 3 4 5 6 7 8 9 10 11 12 13 14 15 16 17 18 19 20 21 22 23 24 25 26 27 28 29 30 31 32 33 34 35 36 37 38 39 40 41 42 43 44 45 46 47 48 49 50

000
ASUS43 KMPX 300810
RWRMN
WEATHER ROUNDUP FOR MINNESOTA
NATIONAL WEATHER SERVICE TWIN CITIES/CHANHASSEN MN
300 AM CDT SAT JUL 30 2016


NOTE: "FAIR" INDICATES FEW OR NO CLOUDS BELOW 12,000 FEET WITH NO
SIGNIFICANT WEATHER AND/OR OBSTRUCTIONS TO VISIBILITY. N/A MEANS
CURRENT SKY AND/OR WEATHER CONDITIONS ARE NOT AVAILABLE.

MNZ060>063-068>070-300900-
   Twin Cities Metro

CITY           SKY/WX    TMP DP  RH WIND       PRES   REMARKS
TWIN CITIES    MOCLDY    69  58  67 NE5       30.02F
ST PAUL        MOCLDY    68  58  70 NE3       30.02F
CRYSTAL        PTCLDY    64  56  75 N3        30.01F
BLAINE         CLEAR     63  59  88 CALM      30.02F
LAKEVILLE      CLOUDY    64  64 100 CALM      30.02S
EDEN PRAIRIE   PTCLDY    64  57  78 N6        30.01F
LAKEVILLE      CLOUDY    64  64 100 CALM      30.02S
SOUTH ST PAUL  PTCLDY    68  57  69 E3        30.02S
LAKE ELMO      MOCLDY    61  59  94 CALM      30.04S
$$
MNZ001>005-007-008-013>017-022>024-027-028-300900-
   Northwest Minnesota

CITY           SKY/WX    TMP DP  RH WIND       PRES   REMARKS
BEMIDJI        MOCLDY    63  60  91 S3        30.03S
HALLOCK        CLEAR     57  54  88 SE7       29.96F
ROSEAU         CLEAR     57  52  82 S3        29.99S
WARROAD        PTCLDY    61  57  88 S3        29.99F
THIEF RVR FALL CLOUDY    56  54  93 S5        30.00F
CROOKSTON      PTCLDY    61  57  88 SE5       29.99S
FOSSTON        CLOUDY    55  46  71 CALM      30.01F
DETROIT LAKES  CLEAR     64  63  94 S6        30.03F
MOORHEAD       CLOUDY    66  63  88 S7        30.00S
PARK RAPIDS    PTCLDY    63  58  83 SE7       30.04S
MAHNOMEN       CLOUDY    63  61  93 SE5       30.01S
$$
MNZ006-009>011-018-025>026-300900-
   North Central Minnesota

CITY           SKY/WX    TMP DP  RH WIND       PRES   REMARKS
BAUDETTE       CLEAR     59  55  87 S7        30.00F
FLAG ISLAND    CLEAR     70  59  68 CALM      29.97F
INTL FALLS     CLEAR     59  53  80 SE3       30.03S
WASKISH        PTCLDY    59  55  88 SE5       30.01S
BIG FORK       CLEAR     55  52  88 CALM      30.05S
LONGVILLE      PTCLDY    57  55  94 CALM      30.05S
GRAND RAPIDS   CLEAR     54  52  93 SE3       30.08S
CRANE LAKE     CLEAR     50  48  93 S1        30.07S
ORR            CLOUDY    55  50  82 CALM      30.03F
COOK           CLOUDY    52  50  93 CALM      30.06F
WALKER         FAIR      62  54  75 SE3       30.03S
$$
MNZ012-019>021-037-300900-
   Northeast Minnesota

CITY           SKY/WX    TMP DP  RH WIND       PRES   REMARKS
DULUTH         PTCLDY    52  50  93 CALM      30.06F
ELY            CLEAR     48  46  93 CALM      30.07F
HIBBING        PTCLDY    46  46 100 CALM      30.07S FOG
EVELETH        CLOUDY    49  48  97 CALM      30.08S
DULUTH HARBOR  CLOUDY    64  59  82 NE6       30.06S
TWO HARBORS    CLEAR     54  48  82 CALM      30.05S
SILVER BAY     CLEAR     48  48 100 CALM      30.05S
GRAND MARAIS     N/A     56  50  80 NW7       30.05F
G MARAIS ARPRT CLEAR     46  43  87 CALM      30.10S
$$
MNZ029>031-032-039>041-046>048-054>057-064-300900-
   West Central Minnesota

CITY           SKY/WX    TMP DP  RH WIND       PRES   REMARKS
FERGUS FALLS   CLOUDY    64  63  94 S7        30.03F
WHEATON        CLOUDY    68  61  77 S7        30.03S
MORRIS         CLEAR     61  57  88 CALM      30.02F
ALEXANDRIA     CLEAR     62  57  83 S5        30.05F
ELBOW LAKE     FAIR      61  59  94 SE6       30.03F
WADENA         CLEAR     57  55  94 CALM      30.04F
GLENWOOD       CLEAR     61  59  94 S3        30.05S
APPLETON       CLEAR     61  55  82 CALM      30.02S
BENSON         CLEAR     61  55  82 CALM      30.03F
ORTONVILLE     MOCLDY    63  55  77 S5        30.02F
MADISON        CLEAR     59  55  88 CALM      30.03S
WILLMAR        FAIR      61  57  88 CALM      30.05S
$$
MNZ033>034-036-042>043-049>051-058-059-300900-
   Central Minnesota

CITY           SKY/WX    TMP DP  RH WIND       PRES   REMARKS
ST CLOUD       CLEAR     54  54 100 CALM      30.04S
SAUK CENTRE    FAIR      58  57  96 CALM      30.04F
PAYNESVILLE    CLEAR     58  58 100 CALM      30.04F
AITKIN         PTCLDY    54  48  82 CALM      30.04F HAZE
PINE RIVER     CLEAR     57  57 100 CALM      30.08S
BRAINERD       PTCLDY    59  56  89 CALM      30.05S
STAPLES        CLEAR     59  55  88 CALM      30.04F
LONG PRAIRIE   FAIR      59  57  94 CALM      30.05S
LITTLE FALLS   CLEAR     57  54  88 CALM      30.05S
LITCHFIELD     CLEAR     61  61 100 CALM      30.04S
BUFFALO        CLEAR     59  55  85 CALM      30.04F
MAPLE LAKE     CLEAR     58  57  98 CALM      30.04F
HUTCHINSON     CLEAR     55  54  99 CALM      30.04S FOG
$$
MNZ037-044-045-052-053-300900-
   East Central Minnesota

CITY           SKY/WX    TMP DP  RH WIND       PRES   REMARKS
PRINCETON      CLEAR     55  55 100 CALM      30.04F
MORA           PTCLDY    54  52  94 CALM      30.06F
CAMBRIDGE      MOCLDY    57  50  77 CALM      30.02F
RUSH CITY      MOCLDY    58  56  92 CALM      30.04F
MOOSE LAKE     CLEAR     52  50  93 CALM      30.04F
HINCKLEY       PTSUNNY   55  55 100 N3        30.05F
CLOQUET        CLOUDY    48  46  93 CALM      30.06F
MCGREGOR       CLEAR     52  50  93 CALM      30.06F
$$
MNZ071>073-080-081-089-090-097-098-300900-
   Southwest Minnesota

CITY           SKY/WX    TMP DP  RH WIND       PRES   REMARKS
MONTEVIDEO     PTCLDY    63  57  82 S3        30.05S
GRANITE FALLS  CLEAR     58  56  93 CALM      30.05S
CANBY          CLEAR     58  55  90 CALM      30.04S
MARSHALL       PTCLDY    58  55  90 SW5       30.05S
REDWOOD FALLS  CLEAR     60  55  83 CALM      30.03F
OLIVIA         CLEAR     57  54  88 CALM      30.03S
PIPESTONE      PTCLDY    59  54  82 NE2       30.06S
WINDOM         CLOUDY    54  52  94 CALM      30.05S
WORTHINGTON    PTCLDY    54  52  93 CALM      30.06S
JACKSON        CLOUDY    54  52  94 CALM      30.05S
TRACY          PTCLDY    61  57  86 SW6       30.05S
SLAYTON        PTCLDY    55  53  91 CALM      30.07R
$$
MNZ065>067-074>077-082>085-091>093-300900-
   South Central Minnesota

CITY           SKY/WX    TMP DP  RH WIND       PRES   REMARKS
MANKATO        CLEAR     61  52  72 N3        30.03S
NEW ULM        CLEAR     54  52  94 CALM      30.03S
ST JAMES       CLEAR     52  50  93 CALM      30.04S
FAIRMONT       PTCLDY    57  52  82 CALM      30.02S
GLENCOE        CLEAR     58  56  96 CALM      30.03S
FARIBAULT      CLOUDY    63  61  94 CALM      30.03S
OWATONNA       MOCLDY    63  59  88 CALM      30.03S
WASECA         CLOUDY    59  55  88 CALM      30.04S
ALBERT LEA     CLEAR     63  59  88 CALM      30.02F
$$
MNZ078>079-086>088-094>096-300900-
   Southeast Minnesota

CITY           SKY/WX    TMP DP  RH WIND       PRES   REMARKS
ROCHESTER      MOCLDY    63  61  93 NE3       30.04S
RED WING       PTCLDY    61  57  88 CALM      30.01S
STANTON        CLOUDY    63  61  94 CALM      30.01S
DODGE CENTER   CLOUDY    63  57  82 CALM      30.03S
WINONA         CLOUDY    70  66  88 CALM      30.02S
AUSTIN         MOCLDY    63  59  88 CALM      30.02S
PRESTON        CLOUDY    63  61  94 CALM      30.04S
$$
ABBREVIATIONS USED IN REMARKS
   TC - TEMPERATURES IN CELSIUS
  WCI - WIND CHILL INDEX
   HX - HEAT INDEX
  VSB - VISIBILITY
$$




USA.gov is the U.S. government's official web portal to all federal, state and local government web resources and services.